[[{"header":{"parameterUnit":"m.s-1","parameterCategory":1,"la1":30.2991,"la2":30.254,"lo1":-89.0895,"lo2":-89.0444,"dy":0.0017,"dx":0.0017,"nx":28,"ny":28,"refTime":"2025-12-11T09:00:00:Z","depth":0,"parameterNumber":2,"parameterNumberName":"U-component_of_WINDS"},"data":[0,0,0,0,0,0,0,0,0,0,0,0,0,0,0,0,0,0,0,0,0,0,0,0,0,0,0,0,0,0,0,0,0,0,0,0,0,0,0,0,0,0,0,0,0,0,0,0,0,0,0,0,0,0,0,0,0,0,1.0763,1.0764,0,1.0857,1.0859,1.086,1.0845,1.0843,1.0841,1.084,1.0936,1.094,1.0944,0,0,0,0,0,0,0,0,0,0,0,0,0,1.0568,1.0572,1.0763,1.0764,1.0765,1.0857,1.0859,1.086,1.0845,1.0843,1.0841,1.0839,1.0935,1.0939,1.0944,0,0,0,0,0,0,0,0,0,0,0,0,0,1.0657,1.0573,1.0762,1.0769,1.077,1.0857,1.0859,1.086,1.0845,1.0843,1.0841,1.0838,1.0933,1.0939,1.0945,1.1031,0,0,1.0964,1.0966,0,0,0,0,0,0,0,0,1.0652,1.0664,1.0767,1.0768,1.077,1.0837,1.0825,1.0918,1.0846,1.0817,1.084,1.0837,1.0905,1.0913,1.0936,1.1036,1.104,1.0964,1.0968,1.097,1.0972,0,0,0,0,0,0,0,1.0646,1.066,1.08,1.0768,1.077,1.0767,1.0777,1.0843,1.0873,1.0819,1.0818,1.083,1.0905,1.093,1.0938,1.1041,1.0964,1.0969,1.0973,1.0975,1.1217,1.1219,0,0,0,0,0,0,1.0638,1.0655,1.0797,1.0803,1.0704,1.0772,1.0783,1.0818,1.0872,1.0879,1.0832,1.0829,1.0921,1.0931,1.0942,1.1046,1.097,1.0976,1.098,1.1214,1.1217,1.122,0,0,0,0,0,0,1.0634,1.0651,1.0793,1.0729,1.0747,1.0778,1.0817,1.0821,1.0846,1.0882,1.0887,1.0852,1.092,1.0933,1.1009,1.1049,1.0979,1.0984,1.1211,1.1215,1.1219,1.1256,0,0,0,0,0,0,1.0628,1.0649,1.0682,1.073,1.075,1.0859,1.082,1.0825,1.0857,1.0854,1.0902,1.0908,1.0919,1.1,1.1015,1.1056,1.0989,1.1207,1.1213,1.1218,1.1251,1.1261,1.1269,0,0,0,0,0,1.0621,1.0688,1.0684,1.0701,1.0792,1.0862,1.0873,1.0885,1.086,1.0893,1.0917,1.0906,1.1043,1.1008,1.1025,1.1068,1.1205,1.1211,1.1217,1.1247,1.1259,1.1269,0,0,0,0,0,0,1.0644,1.0695,1.069,1.0775,1.0814,1.0859,1.0901,1.0897,1.0943,1.0939,1.0951,1.0962,1.1039,1.1062,1.1022,1.1155,1.112,1.113,1.1137,1.1149,1.1157,1.115,1.0994,0,0,0,0,0,1.0659,1.0712,1.0753,1.0823,1.0844,1.0869,1.09,1.0906,1.0947,1.0963,1.0992,1.1032,1.1084,1.1118,1.1168,1.1255,1.1265,1.1293,1.1302,1.1309,1.1317,1.1365,1.1378,1.1241,1.1241,1.1241,0,0,1.069,1.0724,1.0756,1.0829,1.086,1.0914,1.0883,1.0941,1.0981,1.0972,1.1045,1.1068,1.1114,1.1196,1.1234,1.1217,1.1358,1.1317,1.1323,1.1327,1.1373,1.1386,1.1397,1.1245,1.1244,1.1244,0,0,1.0774,1.0806,1.0868,1.09,1.0948,1.0965,1.098,1.1026,1.1041,1.1116,1.111,1.1158,1.1247,1.128,1.1308,1.1407,1.1399,1.1423,1.1469,1.1516,1.1526,1.1536,1.1571,1.1583,1.1431,1.1431,1.1431,0,1.0806,1.0888,1.09,1.096,1.0992,1.0987,1.105,1.108,1.1142,1.1164,1.1145,1.1258,1.1288,1.1378,1.1402,1.1426,1.1443,1.1417,1.1524,1.1534,1.1543,1.1576,1.1589,1.1434,1.1434,1.1433,1.1433,0,1.0925,1.0981,1.1026,1.1086,1.1124,1.1185,1.1207,1.1243,1.1246,1.1265,1.1341,1.1378,1.1435,1.1458,1.1461,1.1549,1.1537,1.1521,1.1486,1.1558,1.159,1.1603,1.1438,1.1437,1.1436,1.1435,0,0,1.1023,1.1091,1.1107,1.1135,1.1189,1.1233,1.1294,1.1351,1.1382,1.1425,1.1476,1.1553,1.1539,1.1571,1.1579,1.162,1.1696,1.1599,1.16,1.1615,1.1794,1.1805,1.182,1.1692,1.1694,1.1696,1.179,0,1.1111,1.122,1.1234,1.1329,1.1382,1.1379,1.1433,1.1471,1.1492,1.1539,1.1561,1.1615,1.1593,1.1612,1.1653,1.1678,1.1732,1.1672,1.1739,1.1741,1.1726,1.1836,1.1847,1.1934,1.1803,1.1805,1.1806,0,1.1228,1.1276,1.1377,1.1424,1.1447,1.1495,1.1548,1.1594,1.1638,1.165,1.1687,1.169,1.1753,1.1718,1.1805,1.1764,1.1793,1.1809,1.1813,1.1819,1.1777,1.1844,1.1962,1.1975,1.1826,1.1824,1.1823,0,1.1289,1.1378,1.1451,1.1474,1.1532,1.1565,1.1591,1.1633,1.1666,1.1714,1.1736,1.179,1.1819,1.1861,1.1878,1.185,1.1965,1.193,1.1976,1.1976,1.1999,1.1997,1.2123,1.202,1.2019,1.2019,1.2019,0,1.1385,1.1447,1.1479,1.1523,1.1592,1.1609,1.1677,1.1701,1.1739,1.1788,1.1789,1.1835,1.1856,1.1905,1.192,1.199,1.2004,1.2015,1.2017,1.2014,1.2012,1.2032,1.2026,1.2023,1.2022,1.2021,1.2021,0,1.1463,1.1487,1.1566,1.1614,1.1628,1.1677,1.1719,1.1762,1.1782,1.1844,1.186,1.1892,1.195,1.1973,1.2043,1.2053,1.2134,1.2133,1.2119,1.212,1.2164,1.2159,1.2306,1.2326,1.221,1.2212,1.2212,0,1.1522,1.157,1.1624,1.1657,1.1684,1.1738,1.1772,1.1791,1.1827,1.1882,1.1919,1.1977,1.2025,1.2118,1.2148,1.2202,1.2201,1.2249,1.2209,1.2205,1.2201,1.2198,1.2203,1.2256,1.2257,1.2258,1.2259,0,1.1624,1.1634,1.1684,1.1739,1.1781,1.1825,1.1868,1.1895,1.192,1.1961,1.2021,1.2058,1.2131,1.2189,1.2246,1.2272,1.227,1.2271,1.2285,1.2281,1.2271,1.2276,1.2138,1.2267,1.2267,1.2266,1.2265,1.2265,1.1694,1.1736,1.1781,1.1838,1.1872,1.1913,1.1956,1.1982,1.2033,1.2094,1.2103,1.2167,1.2212,1.2287,1.2316,1.2367,1.2354,1.2374,1.2379,1.2383,1.2386,1.2264,1.2378,1.2377,1.2377,1.2377,1.2377,0,1.1795,1.1824,1.1876,1.1937,1.1981,1.1977,1.2024,1.2062,1.2118,1.2161,1.2208,1.2277,1.2334,1.2369,1.2426,1.246,1.2461,1.2475,1.2472,1.2478,1.2394,1.2376,1.2473,1.2473,1.2473,1.2473,1.2473,1.2473,1.1853,1.1924,1.194,1.2029,1.2058,1.2122,1.2149,1.2187,1.2221,1.2298,1.2346,1.2369,1.2408,1.2469,1.2521,1.253,1.255,1.2565,1.2573,1.2494,1.2484,1.2474,1.2457,1.257,1.257,1.2652,1.2653,1.2654]},{"header":{"parameterUnit":"m.s-1","parameterCategory":1,"la1":30.2991,"la2":30.254,"lo1":-89.0895,"lo2":-89.0444,"dy":0.0017,"dx":0.0017,"nx":28,"ny":28,"refTime":"2025-12-11T09:00:00:Z","depth":0,"parameterNumber":3,"parameterNumberName":"V-component_of_WINDS"},"data":[0,0,0,0,0,0,0,0,0,0,0,0,0,0,0,0,0,0,0,0,0,0,0,0,0,0,0,0,0,0,0,0,0,0,0,0,0,0,0,0,0,0,0,0,0,0,0,0,0,0,0,0,0,0,0,0,0,0,1.716,1.7162,0,1.7433,1.7436,1.7439,1.7509,1.7508,1.7506,1.7504,1.7789,1.7798,1.7807,0,0,0,0,0,0,0,0,0,0,0,0,0,1.6702,1.671,1.7159,1.7163,1.7166,1.7433,1.7436,1.744,1.751,1.7508,1.7506,1.7504,1.7786,1.7797,1.7808,0,0,0,0,0,0,0,0,0,0,0,0,0,1.6931,1.6713,1.7159,1.7233,1.7242,1.7432,1.7437,1.7441,1.751,1.7508,1.7505,1.7503,1.7783,1.7796,1.781,1.7947,0,0,1.7852,1.7858,0,0,0,0,0,0,0,0,1.6918,1.6947,1.7219,1.7228,1.7239,1.7434,1.738,1.7611,1.7511,1.7409,1.7504,1.7501,1.7674,1.7696,1.7753,1.796,1.7972,1.7853,1.7861,1.7867,1.7871,0,0,0,0,0,0,0,1.6902,1.6936,1.7268,1.7222,1.7235,1.7254,1.7284,1.7424,1.7552,1.7417,1.7423,1.7454,1.7679,1.774,1.7761,1.7976,1.7853,1.7865,1.7873,1.7879,1.8311,1.8314,0,0,0,0,0,0,1.6872,1.6922,1.7259,1.7276,1.7068,1.7264,1.7298,1.7374,1.7551,1.7575,1.7456,1.7456,1.7718,1.7744,1.7771,1.7944,1.7867,1.788,1.7888,1.8308,1.8311,1.8315,0,0,0,0,0,0,1.6862,1.6902,1.7248,1.7101,1.7146,1.7275,1.7361,1.7381,1.7442,1.758,1.7604,1.7495,1.7717,1.7751,1.7902,1.7955,1.7886,1.7899,1.8304,1.8309,1.8313,1.8291,0,0,0,0,0,0,1.6849,1.6898,1.695,1.7101,1.7154,1.7374,1.7364,1.7388,1.7465,1.7468,1.7623,1.7646,1.7717,1.7881,1.7916,1.7973,1.791,1.83,1.8306,1.8312,1.8288,1.8294,1.83,0,0,0,0,0,1.6832,1.6933,1.6952,1.6992,1.7222,1.7376,1.7407,1.7485,1.7469,1.7524,1.7613,1.7641,1.7943,1.7896,1.7936,1.7998,1.8297,1.8304,1.8311,1.8285,1.8293,1.83,0,0,0,0,0,0,1.6787,1.6955,1.6977,1.713,1.7238,1.7388,1.7459,1.7491,1.7608,1.7606,1.77,1.7734,1.7879,1.7953,1.7898,1.814,1.812,1.8136,1.8087,1.8096,1.8102,1.8082,1.7921,0,0,0,0,0,1.6794,1.6904,1.7045,1.7167,1.722,1.7329,1.74,1.7451,1.7568,1.7614,1.7714,1.7827,1.7948,1.8026,1.8144,1.8298,1.8334,1.836,1.8366,1.8371,1.8384,1.8472,1.8486,1.8339,1.8338,1.8338,0,0,1.6811,1.6916,1.698,1.716,1.725,1.7364,1.7368,1.7488,1.7574,1.7633,1.7782,1.7859,1.7991,1.8144,1.8217,1.8211,1.8432,1.838,1.8382,1.8393,1.8481,1.8495,1.8507,1.8343,1.8343,1.8342,0,0,1.69,1.699,1.7102,1.7191,1.7326,1.7399,1.7425,1.7571,1.7624,1.7774,1.7821,1.7925,1.813,1.8224,1.8298,1.8422,1.8453,1.8458,1.8492,1.8577,1.8588,1.8599,1.8646,1.8661,1.847,1.847,1.847,0,1.6905,1.7076,1.7155,1.7273,1.7352,1.7409,1.7523,1.7607,1.7775,1.7828,1.7818,1.8078,1.8171,1.8348,1.8378,1.8435,1.847,1.8442,1.858,1.8592,1.8603,1.8648,1.8665,1.847,1.847,1.847,1.847,0,1.7076,1.7195,1.7269,1.7427,1.7514,1.763,1.7728,1.7806,1.785,1.7923,1.8077,1.819,1.8333,1.8379,1.8423,1.8562,1.8555,1.8561,1.8543,1.8616,1.866,1.8678,1.8469,1.8469,1.8469,1.8469,0,0,1.7147,1.7346,1.7373,1.7446,1.7599,1.7693,1.7811,1.795,1.8016,1.813,1.8233,1.8405,1.8412,1.8496,1.8551,1.8626,1.8719,1.8624,1.8629,1.8639,1.8882,1.8878,1.8896,1.874,1.8743,1.8746,1.8872,0,1.7256,1.7469,1.7543,1.7719,1.783,1.7886,1.799,1.8096,1.8168,1.8274,1.8355,1.8476,1.8475,1.8526,1.8602,1.8691,1.877,1.8683,1.8839,1.8844,1.8806,1.8919,1.8915,1.9028,1.8889,1.8892,1.8894,0,1.7413,1.7527,1.7714,1.7854,1.7903,1.7995,1.8128,1.8228,1.835,1.8398,1.8491,1.854,1.8669,1.8641,1.8821,1.876,1.8828,1.8882,1.8888,1.8908,1.8875,1.8944,1.9066,1.9083,1.8922,1.892,1.8918,0,1.7448,1.7648,1.7786,1.7846,1.8012,1.8076,1.8148,1.8267,1.8346,1.8463,1.8515,1.8646,1.8718,1.8819,1.8903,1.8875,1.9076,1.9055,1.9121,1.9119,1.9162,1.9159,1.9299,1.9202,1.9202,1.9201,1.9201,0,1.7564,1.7676,1.7803,1.7888,1.8017,1.8102,1.8227,1.8303,1.8408,1.8511,1.8567,1.8662,1.8766,1.8876,1.8942,1.9082,1.9113,1.9157,1.9174,1.9153,1.9148,1.9201,1.9196,1.9206,1.9205,1.9204,1.9203,0,1.7625,1.7714,1.7868,1.8012,1.8051,1.8139,1.8264,1.835,1.8423,1.8552,1.8587,1.8704,1.8836,1.8929,1.9099,1.9144,1.9295,1.931,1.9253,1.9262,1.9323,1.9317,1.9504,1.9534,1.9414,1.9415,1.9416,0,1.7694,1.7782,1.7934,1.8006,1.8078,1.8192,1.8273,1.836,1.8441,1.8587,1.8656,1.879,1.8903,1.9111,1.9213,1.9343,1.9364,1.942,1.9384,1.9361,1.9367,1.9362,1.9372,1.9426,1.9427,1.9428,1.9428,0,1.7808,1.7848,1.796,1.8088,1.8182,1.8287,1.8394,1.845,1.8556,1.8645,1.8779,1.8867,1.9039,1.9174,1.9314,1.9391,1.9429,1.9438,1.9461,1.9442,1.9406,1.9429,1.927,1.9434,1.9434,1.9433,1.9433,1.9433,1.7877,1.7958,1.8078,1.8202,1.829,1.8388,1.8476,1.856,1.8673,1.882,1.8864,1.9004,1.9126,1.9318,1.9396,1.9508,1.9506,1.9538,1.9546,1.9553,1.9554,1.9386,1.9534,1.9534,1.9534,1.9534,1.9534,0,1.7996,1.8075,1.8188,1.8334,1.8432,1.8455,1.8575,1.8656,1.8777,1.8886,1.8995,1.9151,1.9281,1.9392,1.9528,1.9596,1.9617,1.9629,1.9626,1.9644,1.9547,1.9515,1.961,1.961,1.961,1.961,1.961,1.961,1.8069,1.8207,1.8261,1.8445,1.8525,1.866,1.8727,1.8818,1.8906,1.9076,1.9184,1.9254,1.9365,1.9509,1.9631,1.966,1.9709,1.9717,1.9751,1.9659,1.965,1.9642,1.9612,1.9726,1.9726,1.9839,1.984,1.984]}]]